Tracking 21474 objects as of 25-Sep-2020
HD Live streaming from Space Station
objects crossing your sky now

PERSEUS M2

Track PERSEUS M2 now!
10-day predictions
PERSEUS M2 is classified as:


NORAD ID: 40037
Int'l Code: 2014-033AD
Perigee: 605.9 km
Apogee: 625.7 km
Inclination: 97.9 °
Period: 96.9 minutes
Semi major axis: 6986 km
RCS: Unknown
Launch date: June 19, 2014
Source: Commonwealth of Independent States (former USSR) (CIS)
Launch site: Orenburg, Russia (OREN)

Uplink (MHz):
Downlink (MHz): 400.190/400.221
Beacon (MHz):
Mode: 9600bps GFSK
Call sign: CQ
Status:

aabbcc
Your satellite tracking list
Your tracking list is empty




NASA's NSSDC Master Catalog

Two Line Element Set (TLE):
1 40037U 14033AD  20269.48793323 +.00000119 +00000-0 +19679-4 0  9990
2 40037 097.8839 185.0615 0014142 350.3081 009.7860 14.86566546339521
Source of the keplerian elements: AFSPC